| time (UTC) | temp F | wind direction | speed MPH | gust MPH | rain 1hr in | rain 24hr in | rain mn in | humidity % | barometer mb |
| 20260901022043 | 60 | 215 | 0.0 | 6.0 | 0.00 | 0.07 | 0.01 | 92 | 1012.7 |
| 20260901021558 | 60 | 219 | 1.0 | 8.0 | 0.00 | 0.07 | 0.01 | 92 | 1012.8 |
| 20260901021143 | 60 | 220 | 3.0 | 8.0 | 0.01 | 0.07 | 0.01 | 92 | 1012.8 |
| 20260901020542 | 60 | 202 | 2.0 | 6.0 | 0.01 | 0.07 | 0.01 | 92 | 1012.8 |
| 20260901020041 | 60 | 360 | 1.0 | 6.0 | 0.01 | 0.07 | 0.01 | 92 | 1012.8 |
| 20260901015540 | 60 | 209 | 1.0 | 6.0 | 0.01 | 0.07 | 0.01 | 92 | 1012.8 |
| 20260901015039 | 60 | 211 | 2.0 | 6.0 | 0.01 | 0.07 | 0.01 | 92 | 1012.8 |
| 20260901014539 | 60 | 211 | 2.0 | 8.0 | 0.01 | 0.07 | 0.01 | 92 | 1012.9 |
| 20260901014038 | 61 | 233 | 4.0 | 8.0 | 0.01 | 0.07 | 0.01 | 92 | 1012.8 |
| 20260901013538 | 61 | 225 | 3.0 | 6.0 | 0.01 | 0.07 | 0.01 | 92 | 1012.7 |
| 20260901013049 | 61 | 360 | 3.0 | 6.0 | 0.01 | 0.07 | 0.01 | 92 | 1012.6 |
| 20260901012536 | 61 | 220 | 3.0 | 7.0 | 0.01 | 0.07 | 0.01 | 92 | 1012.6 |
| 20260901012036 | 61 | 360 | 3.0 | 9.0 | 0.01 | 0.07 | 0.01 | 92 | 1012.6 |
| 20260901011558 | 61 | 360 | 3.0 | 9.0 | 0.01 | 0.07 | 0.01 | 92 | 1012.7 |
| 20260901011036 | 61 | 223 | 4.0 | 8.0 | 0.00 | 0.06 | 0.00 | 92 | 1012.7 |
| 20260901010536 | 61 | 236 | 2.0 | 12.0 | 0.00 | 0.06 | 0.00 | 93 | 1012.7 |
| 20260901010036 | 61 | 238 | 3.0 | 12.0 | 0.00 | 0.06 | 0.00 | 93 | 1012.8 |
| 20260901005537 | 61 | 225 | 2.0 | 8.0 | 0.00 | 0.06 | 0.00 | 93 | 1012.8 |
| 20260901005039 | 61 | 227 | 2.0 | 8.0 | 0.00 | 0.06 | 0.00 | 94 | 1012.8 |
| 20260901004536 | 61 | 215 | 3.0 | 8.0 | 0.00 | 0.06 | 0.00 | 94 | 1012.7 |
| 20260901004035 | 61 | 220 | 2.0 | 7.0 | 0.00 | 0.06 | 0.00 | 94 | 1012.7 |
| 20260901003536 | 61 | 210 | 2.0 | 8.0 | 0.00 | 0.06 | 0.00 | 95 | 1012.7 |
| 20260901003045 | 61 | 231 | 1.0 | 8.0 | 0.00 | 0.06 | 0.00 | 95 | 1012.8 |
| 20260901002535 | 61 | 228 | 0.0 | 0.0 | 0.00 | 0.06 | 0.00 | 95 | 1012.8 |
| 20260901002034 | 61 | 223 | 0.0 | 0.0 | 0.00 | 0.06 | 0.00 | 95 | 1012.9 |
| 20260901001534 | 61 | 223 | 0.0 | 0.0 | 0.00 | 0.06 | 0.00 | 95 | 1012.8 |
| 20260901001034 | 61 | 210 | 0.0 | 0.0 | 0.00 | 0.06 | 0.00 | 95 | 1012.6 |
| 20260901000035 | 61 | 212 | 0.0 | 0.0 | 0.00 | 0.06 | 0.00 | 95 | 1012.8 |
| 20260831235532 | 61 | 202 | 0.0 | 0.0 | 0.00 | 0.06 | 0.00 | 95 | 1012.8 |
| 20260831235032 | 61 | 205 | 0.0 | 0.0 | 0.00 | 0.06 | 0.00 | 95 | 1012.8 |
| 20260831234532 | 61 | 207 | 0.0 | 0.0 | 0.00 | 0.06 | 0.00 | 95 | 1012.8 |
| 20260831234032 | 61 | 183 | 0.0 | 0.0 | 0.00 | 0.06 | 0.00 | 95 | 1012.7 |
| 20260831233531 | 61 | 198 | 0.0 | 0.0 | 0.00 | 0.06 | 0.00 | 95 | 1012.8 |
| 20260831233030 | 61 | 207 | 0.0 | 0.0 | 0.00 | 0.06 | 0.00 | 95 | 1012.8 |
| 20260831232530 | 61 | 207 | 0.0 | 0.0 | 0.00 | 0.06 | 0.00 | 95 | 1012.9 |
| 20260831232030 | 61 | 209 | 0.0 | 0.0 | 0.00 | 0.06 | 0.00 | 95 | 1012.9 |
| 20260831231529 | 61 | 209 | 0.0 | 0.0 | 0.00 | 0.06 | 0.00 | 95 | 1012.9 |
| 20260831231030 | 61 | 209 | 0.0 | 0.0 | 0.00 | 0.06 | 0.00 | 95 | 1013.0 |
| 20260831230527 | 61 | 209 | 0.0 | 0.0 | 0.00 | 0.06 | 0.00 | 95 | 1013.1 |
| 20260831230028 | 61 | 211 | 0.0 | 0.0 | 0.00 | 0.06 | 0.00 | 95 | 1013.1 |
| 20260831225526 | 61 | 211 | 0.0 | 0.0 | 0.00 | 0.06 | 0.00 | 95 | 1013.1 |
| 20260831225026 | 61 | 211 | 0.0 | 0.0 | 0.00 | 0.06 | 0.00 | 95 | 1013.2 |
| 20260831224526 | 61 | 211 | 0.0 | 0.0 | 0.00 | 0.06 | 0.00 | 94 | 1013.2 |
| 20260831224025 | 62 | 211 | 0.0 | 0.0 | 0.00 | 0.06 | 0.00 | 94 | 1013.1 |
| 20260831223525 | 62 | 211 | 0.0 | 0.0 | 0.00 | 0.06 | 0.00 | 95 | 1013.2 |
| 20260831223033 | 62 | 211 | 0.0 | 0.0 | 0.00 | 0.06 | 0.00 | 95 | 1013.2 |
| 20260831222528 | 62 | 211 | 0.0 | 0.0 | 0.00 | 0.06 | 0.00 | 95 | 1013.3 |
| 20260831222025 | 62 | 221 | 0.0 | 0.0 | 0.00 | 0.06 | 0.00 | 95 | 1013.4 |
| 20260831221523 | 62 | 222 | 0.0 | 0.0 | 0.00 | 0.06 | 0.00 | 95 | 1013.4 |
| 20260831221022 | 62 | 236 | 0.0 | 0.0 | 0.00 | 0.06 | 0.00 | 94 | 1013.3 |
| 20260831220521 | 62 | 193 | 0.0 | 0.0 | 0.00 | 0.06 | 0.00 | 94 | 1013.2 |
| 20260831215520 | 62 | 199 | 0.0 | 0.0 | 0.00 | 0.06 | 0.06 | 94 | 1013.2 |
| 20260831215020 | 62 | 211 | 0.0 | 0.0 | 0.00 | 0.06 | 0.06 | 94 | 1013.1 |
| 20260831214520 | 62 | 227 | 0.0 | 0.0 | 0.00 | 0.06 | 0.06 | 94 | 1013.1 |
| 20260831214019 | 62 | 216 | 0.0 | 0.0 | 0.00 | 0.06 | 0.06 | 94 | 1013.0 |
| 20260831213519 | 62 | 215 | 0.0 | 0.0 | 0.00 | 0.06 | 0.06 | 94 | 1013.0 |
| 20260831213020 | 63 | 186 | 0.0 | 0.0 | 0.00 | 0.06 | 0.06 | 94 | 1013.0 |
| 20260831212519 | 63 | 186 | 0.0 | 0.0 | 0.00 | 0.06 | 0.06 | 94 | 1012.9 |
| 20260831212020 | 63 | 186 | 0.0 | 0.0 | 0.00 | 0.06 | 0.06 | 94 | 1012.8 |
| 20260831211532 | 63 | 186 | 0.0 | 0.0 | 0.00 | 0.06 | 0.06 | 94 | 1012.9 |
| 20260831211019 | 63 | 186 | 0.0 | 0.0 | 0.00 | 0.06 | 0.06 | 94 | 1013.1 |
| 20260831210521 | 63 | 175 | 0.0 | 0.0 | 0.00 | 0.06 | 0.06 | 94 | 1013.3 |
| 20260831210018 | 63 | 179 | 0.0 | 0.0 | 0.00 | 0.06 | 0.06 | 94 | 1013.1 |
| 20260831205520 | 63 | 198 | 0.0 | 0.0 | 0.00 | 0.06 | 0.06 | 94 | 1013.1 |
| 20260831205021 | 63 | 198 | 0.0 | 0.0 | 0.00 | 0.06 | 0.06 | 94 | 1013.0 |
| 20260831204518 | 63 | 198 | 0.0 | 0.0 | 0.00 | 0.06 | 0.06 | 93 | 1013.0 |
| 20260831204018 | 63 | 223 | 0.0 | 0.0 | 0.00 | 0.06 | 0.06 | 93 | 1013.0 |
| 20260831203517 | 63 | 223 | 0.0 | 0.0 | 0.00 | 0.06 | 0.06 | 93 | 1013.0 |
| 20260831203022 | 63 | 223 | 0.0 | 0.0 | 0.00 | 0.06 | 0.06 | 93 | 1013.0 |
| 20260831202521 | 63 | 223 | 0.0 | 0.0 | 0.00 | 0.06 | 0.06 | 93 | 1012.9 |
| 20260831202019 | 63 | 223 | 0.0 | 0.0 | 0.00 | 0.06 | 0.06 | 93 | 1013.0 |
| 20260831201518 | 64 | 223 | 0.0 | 0.0 | 0.00 | 0.06 | 0.06 | 93 | 1013.0 |
| 20260831201018 | 64 | 223 | 0.0 | 0.0 | 0.00 | 0.06 | 0.06 | 93 | 1013.0 |
| 20260831200516 | 64 | 223 | 0.0 | 0.0 | 0.00 | 0.06 | 0.06 | 93 | 1013.0 |
| 20260831200023 | 64 | 223 | 0.0 | 0.0 | 0.00 | 0.06 | 0.06 | 93 | 1013.0 |
| 20260831195517 | 64 | 223 | 0.0 | 0.0 | 0.00 | 0.06 | 0.06 | 93 | 1013.0 |
| 20260831195017 | 64 | 223 | 0.0 | 0.0 | 0.00 | 0.06 | 0.06 | 93 | 1012.9 |
| 20260831194521 | 64 | 223 | 0.0 | 0.0 | 0.00 | 0.06 | 0.06 | 93 | 1012.9 |
| 20260831194016 | 64 | 230 | 0.0 | 0.0 | 0.00 | 0.06 | 0.06 | 93 | 1012.9 |
| 20260831193516 | 64 | 227 | 0.0 | 0.0 | 0.00 | 0.06 | 0.06 | 92 | 1013.0 |
| 20260831193017 | 65 | 227 | 0.0 | 0.0 | 0.00 | 0.06 | 0.06 | 92 | 1012.9 |
| 20260831192516 | 65 | 231 | 0.0 | 0.0 | 0.00 | 0.06 | 0.06 | 92 | 1012.9 |
| 20260831192018 | 65 | 232 | 0.0 | 0.0 | 0.00 | 0.06 | 0.06 | 92 | 1012.9 |
| 20260831191517 | 65 | 221 | 0.0 | 0.0 | 0.00 | 0.06 | 0.06 | 92 | 1012.9 |
| 20260831191015 | 65 | 211 | 0.0 | 0.0 | 0.00 | 0.06 | 0.06 | 92 | 1012.9 |
| 20260831190515 | 65 | 209 | 0.0 | 0.0 | 0.00 | 0.06 | 0.06 | 92 | 1012.9 |
| 20260831190015 | 65 | 209 | 0.0 | 0.0 | 0.00 | 0.06 | 0.06 | 92 | 1012.8 |
| 20260831185615 | 65 | 209 | 0.0 | 1.0 | 0.00 | 0.06 | 0.06 | 92 | 1012.9 |
| 20260831185014 | 65 | 209 | 0.0 | 6.0 | 0.00 | 0.06 | 0.06 | 92 | 1012.8 |
| 20260831184514 | 66 | 211 | 3.0 | 7.0 | 0.00 | 0.06 | 0.06 | 91 | 1012.8 |
| 20260831184014 | 66 | 360 | 2.0 | 7.0 | 0.00 | 0.06 | 0.06 | 91 | 1012.8 |
| 20260831183517 | 66 | 194 | 2.0 | 6.0 | 0.00 | 0.06 | 0.06 | 91 | 1012.7 |
| 20260831183014 | 66 | 205 | 0.0 | 0.0 | 0.00 | 0.06 | 0.06 | 91 | 1012.7 |
| 20260831182514 | 66 | 205 | 0.0 | 0.0 | 0.00 | 0.06 | 0.06 | 91 | 1012.7 |
| 20260831182014 | 66 | 205 | 0.0 | 0.0 | 0.00 | 0.06 | 0.06 | 91 | 1012.6 |
| 20260831181514 | 66 | 205 | 0.0 | 0.0 | 0.00 | 0.06 | 0.06 | 90 | 1012.6 |
| 20260831181013 | 66 | 205 | 0.0 | 0.0 | 0.00 | 0.06 | 0.06 | 90 | 1012.5 |
| 20260831180512 | 66 | 205 | 0.0 | 0.0 | 0.00 | 0.06 | 0.06 | 90 | 1012.3 |
| 20260831180012 | 67 | 205 | 0.0 | 0.0 | 0.00 | 0.06 | 0.06 | 89 | 1012.3 |
| 20260831175512 | 67 | 205 | 0.0 | 0.0 | 0.00 | 0.06 | 0.06 | 89 | 1012.3 |
| 20260831175012 | 67 | 205 | 0.0 | 0.0 | 0.00 | 0.06 | 0.06 | 89 | 1012.3 |
| 20260831174512 | 67 | 205 | 0.0 | 0.0 | 0.00 | 0.06 | 0.06 | 88 | 1012.2 |
| 20260831174012 | 67 | 205 | 0.0 | 4.0 | 0.00 | 0.06 | 0.06 | 88 | 1012.2 |
| 20260831173512 | 68 | 205 | 0.0 | 5.0 | 0.00 | 0.06 | 0.06 | 88 | 1012.3 |
| 20260831173012 | 68 | 205 | 1.0 | 5.0 | 0.00 | 0.06 | 0.06 | 87 | 1012.3 |
| 20260831172512 | 68 | 220 | 0.0 | 7.0 | 0.00 | 0.06 | 0.06 | 87 | 1012.2 |
| 20260831172011 | 68 | 236 | 1.0 | 7.0 | 0.00 | 0.06 | 0.06 | 87 | 1012.2 |
| 20260831171511 | 68 | 233 | 3.0 | 7.0 | 0.00 | 0.06 | 0.06 | 86 | 1012.3 |
| 20260831171011 | 69 | 225 | 2.0 | 10.0 | 0.00 | 0.06 | 0.06 | 86 | 1012.2 |
| 20260831170510 | 69 | 224 | 3.0 | 7.0 | 0.00 | 0.06 | 0.06 | 86 | 1012.2 |
| 20260831170011 | 69 | 257 | 3.0 | 8.0 | 0.00 | 0.06 | 0.06 | 85 | 1012.2 |
| 20260831165509 | 69 | 244 | 3.0 | 9.0 | 0.00 | 0.06 | 0.06 | 85 | 1012.1 |
| 20260831165109 | 69 | 198 | 2.0 | 9.0 | 0.00 | 0.06 | 0.06 | 84 | 1012.0 |
| 20260831164608 | 70 | 224 | 2.0 | 15.0 | 0.00 | 0.06 | 0.06 | 84 | 1012.0 |
| 20260831164008 | 70 | 215 | 6.0 | 15.0 | 0.00 | 0.06 | 0.06 | 84 | 1012.1 |
| 20260831163509 | 70 | 263 | 5.0 | 19.0 | 0.00 | 0.06 | 0.06 | 84 | 1012.1 |
| 20260831163008 | 70 | 228 | 8.0 | 19.0 | 0.00 | 0.06 | 0.06 | 84 | 1012.1 |
| 20260831162509 | 70 | 220 | 5.0 | 17.0 | 0.00 | 0.06 | 0.06 | 84 | 1012.1 |
| 20260831162008 | 70 | 239 | 5.0 | 23.0 | 0.00 | 0.06 | 0.06 | 84 | 1012.1 |
| 20260831161507 | 70 | 211 | 4.0 | 23.0 | 0.00 | 0.06 | 0.06 | 83 | 1012.2 |
| 20260831161013 | 70 | 213 | 9.0 | 18.0 | 0.00 | 0.06 | 0.06 | 83 | 1012.2 |
| 20260831160506 | 70 | 270 | 6.0 | 18.0 | 0.00 | 0.06 | 0.06 | 84 | 1012.2 |
| 20260831160006 | 70 | 212 | 9.0 | 18.0 | 0.00 | 0.06 | 0.06 | 85 | 1012.2 |
| 20260831155506 | 70 | 225 | 11.0 | 17.0 | 0.00 | 0.06 | 0.06 | 85 | 1012.2 |
| 20260831155006 | 70 | 215 | 6.0 | 15.0 | 0.00 | 0.06 | 0.06 | 86 | 1012.3 |
| 20260831154506 | 70 | 221 | 6.0 | 16.0 | 0.00 | 0.06 | 0.06 | 86 | 1012.3 |
| 20260831154005 | 70 | 215 | 8.0 | 19.0 | 0.00 | 0.06 | 0.06 | 85 | 1012.3 |
| 20260831153509 | 70 | 205 | 9.0 | 19.0 | 0.00 | 0.06 | 0.06 | 85 | 1012.4 |
| 20260831153007 | 70 | 198 | 8.0 | 14.0 | 0.00 | 0.06 | 0.06 | 86 | 1012.3 |
| 20260831152505 | 70 | 233 | 8.0 | 15.0 | 0.00 | 0.06 | 0.06 | 86 | 1012.3 |
| 20260831152004 | 70 | 218 | 6.0 | 15.0 | 0.00 | 0.06 | 0.06 | 88 | 1012.3 |
| 20260831151504 | 69 | 227 | 9.0 | 16.0 | 0.00 | 0.06 | 0.06 | 88 | 1012.3 |
| 20260831151004 | 69 | 255 | 7.0 | 15.0 | 0.00 | 0.06 | 0.06 | 89 | 1012.3 |
| 20260831150505 | 69 | 217 | 7.0 | 12.0 | 0.00 | 0.06 | 0.06 | 89 | 1012.4 |
| 20260831150005 | 69 | 203 | 5.0 | 12.0 | 0.00 | 0.06 | 0.06 | 90 | 1012.3 |
| 20260831145504 | 69 | 215 | 4.0 | 9.0 | 0.00 | 0.06 | 0.06 | 90 | 1012.3 |
| 20260831145009 | 69 | 196 | 3.0 | 10.0 | 0.00 | 0.06 | 0.06 | 90 | 1012.2 |
| 20260831144003 | 69 | 211 | 6.0 | 14.0 | 0.00 | 0.06 | 0.06 | 90 | 1012.2 |
| 20260831143503 | 69 | 201 | 4.0 | 11.0 | 0.00 | 0.06 | 0.06 | 91 | 1012.2 |
| 20260831143003 | 68 | 211 | 3.0 | 9.0 | 0.00 | 0.06 | 0.06 | 93 | 1012.2 |
| 20260831142502 | 68 | 175 | 0.0 | 7.0 | 0.00 | 0.06 | 0.06 | 92 | 1012.2 |
| 20260831142001 | 68 | 175 | 2.0 | 7.0 | 0.00 | 0.06 | 0.06 | 93 | 1012.2 |
| 20260831141502 | 67 | 128 | 1.0 | 4.0 | 0.00 | 0.06 | 0.06 | 92 | 1012.1 |
| 20260831141001 | 67 | 164 | 0.0 | 0.0 | 0.00 | 0.06 | 0.06 | 92 | 1012.2 |
| 20260831140501 | 67 | 163 | 0.0 | 0.0 | 0.01 | 0.06 | 0.06 | 92 | 1012.2 |
| 20260831140001 | 67 | 164 | 0.0 | 0.0 | 0.02 | 0.06 | 0.06 | 92 | 1012.1 |
| 20260831135601 | 67 | 164 | 0.0 | 1.0 | 0.02 | 0.06 | 0.06 | 91 | 1012.2 |
| 20260831135102 | 67 | 179 | 0.0 | 5.0 | 0.03 | 0.06 | 0.06 | 91 | 1012.3 |
| 20260831134605 | 67 | 183 | 2.0 | 5.0 | 0.04 | 0.06 | 0.06 | 91 | 1012.3 |
| 20260831134502 | 67 | 213 | 1.0 | 5.0 | 0.05 | 0.06 | 0.06 | 91 | 1012.3 |
| 20260831134059 | 67 | 181 | 0.0 | 3.0 | 0.05 | 0.06 | 0.06 | 91 | 1012.2 |
| 20260831133559 | 66 | 198 | 0.0 | 6.0 | 0.05 | 0.06 | 0.06 | 90 | 1012.3 |
| 20260831133105 | 66 | 198 | 1.0 | 8.0 | 0.06 | 0.06 | 0.06 | 90 | 1012.5 |
| 20260831132559 | 66 | 204 | 4.0 | 10.0 | 0.06 | 0.06 | 0.06 | 89 | 1012.6 |
| 20260831132059 | 67 | 209 | 5.0 | 10.0 | 0.06 | 0.06 | 0.06 | 89 | 1012.6 |
| 20260831131604 | 67 | 228 | 3.0 | 10.0 | 0.06 | 0.06 | 0.06 | 89 | 1012.5 |
| 20260831131059 | 67 | 221 | 0.0 | 8.0 | 0.06 | 0.06 | 0.06 | 89 | 1012.5 |
| 20260831130559 | 67 | 247 | 3.0 | 12.0 | 0.06 | 0.06 | 0.06 | 89 | 1012.7 |
| 20260831130059 | 68 | 248 | 2.0 | 15.0 | 0.05 | 0.05 | 0.05 | 89 | 1012.8 |
| 20260831125558 | 68 | 243 | 5.0 | 15.0 | 0.04 | 0.04 | 0.04 | 88 | 1012.9 |
| 20260831125056 | 68 | 284 | 1.0 | 9.0 | 0.02 | 0.02 | 0.02 | 88 | 1012.9 |
| 20260831124557 | 68 | 259 | 3.0 | 13.0 | 0.02 | 0.02 | 0.02 | 87 | 1012.8 |
| 20260831123556 | 69 | 263 | 3.0 | 11.0 | 0.02 | 0.02 | 0.02 | 86 | 1012.9 |
| 20260831123056 | 69 | 203 | 4.0 | 11.0 | 0.01 | 0.01 | 0.01 | 85 | 1012.8 |
| 20260831122559 | 69 | 213 | 4.0 | 10.0 | 0.01 | 0.01 | 0.01 | 84 | 1012.8 |
| 20260831122056 | 69 | 232 | 4.0 | 10.0 | 0.01 | 0.01 | 0.01 | 84 | 1012.7 |
| 20260831121556 | 70 | 238 | 3.0 | 10.0 | 0.01 | 0.01 | 0.01 | 83 | 1012.7 |
| 20260831121059 | 70 | 189 | 5.0 | 10.0 | 0.01 | 0.01 | 0.01 | 82 | 1012.7 |
| 20260831120657 | 70 | 225 | 5.0 | 15.0 | 0.00 | 0.00 | 0.00 | 81 | 1012.7 |
| 20260831120058 | 71 | 208 | 6.0 | 25.0 | 0.00 | 0.00 | 0.00 | 78 | 1012.7 |
| 20260831115554 | 72 | 202 | 12.0 | 25.0 | 0.00 | 0.00 | 0.00 | 76 | 1012.8 |
| 20260831115056 | 73 | 171 | 10.0 | 30.0 | 0.00 | 0.00 | 0.00 | 74 | 1012.8 |
| 20260831114554 | 73 | 215 | 14.0 | 30.0 | 0.00 | 0.00 | 0.00 | 71 | 1012.8 |
| 20260831114054 | 73 | 212 | 14.0 | 25.0 | 0.00 | 0.00 | 0.00 | 71 | 1012.6 |
| 20260831113554 | 74 | 204 | 10.0 | 24.0 | 0.00 | 0.00 | 0.00 | 72 | 1012.6 |
| 20260831113056 | 74 | 215 | 6.0 | 30.0 | 0.00 | 0.00 | 0.00 | 73 | 1012.6 |
| 20260831112555 | 75 | 211 | 13.0 | 25.0 | 0.00 | 0.00 | 0.00 | 72 | 1012.5 |
| 20260831112052 | 75 | 196 | 12.0 | 27.0 | 0.00 | 0.00 | 0.00 | 72 | 1012.6 |
| 20260831111609 | 74 | 213 | 9.0 | 24.0 | 0.00 | 0.00 | 0.00 | 72 | 1012.5 |
| 20260831111052 | 74 | 197 | 9.0 | 21.0 | 0.00 | 0.00 | 0.00 | 71 | 1012.4 |
| 20260831110552 | 74 | 218 | 7.0 | 17.0 | 0.00 | 0.00 | 0.00 | 71 | 1012.4 |
| 20260831110052 | 74 | 206 | 5.0 | 10.0 | 0.00 | 0.00 | 0.00 | 72 | 1012.4 |
| 20260831105552 | 74 | 218 | 5.0 | 15.0 | 0.00 | 0.00 | 0.00 | 71 | 1012.4 |
| 20260831105052 | 75 | 199 | 4.0 | 15.0 | 0.00 | 0.00 | 0.00 | 71 | 1012.4 |
| 20260831104552 | 75 | 200 | 3.0 | 11.0 | 0.00 | 0.00 | 0.00 | 71 | 1012.2 |
| 20260831104051 | 75 | 179 | 3.0 | 11.0 | 0.00 | 0.00 | 0.00 | 70 | 1012.2 |
| 20260831103057 | 75 | 215 | 8.0 | 18.0 | 0.00 | 0.00 | 0.00 | 68 | 1012.2 |
| 20260831102550 | 75 | 220 | 8.0 | 18.0 | 0.00 | 0.00 | 0.00 | 68 | 1012.2 |
| 20260831102050 | 75 | 202 | 5.0 | 14.0 | 0.00 | 0.00 | 0.00 | 68 | 1012.3 |
| 20260831101555 | 75 | 192 | 9.0 | 14.0 | 0.00 | 0.00 | 0.00 | 67 | 1012.2 |
| 20260831101051 | 76 | 215 | 7.0 | 11.0 | 0.00 | 0.00 | 0.00 | 68 | 1012.2 |
| 20260831100552 | 76 | 162 | 6.0 | 13.0 | 0.00 | 0.00 | 0.00 | 68 | 1012.2 |
| 20260831100049 | 76 | 163 | 6.0 | 13.0 | 0.00 | 0.00 | 0.00 | 67 | 1012.2 |
| 20260831095553 | 76 | 180 | 4.0 | 9.0 | 0.00 | 0.00 | 0.00 | 68 | 1012.1 |
| 20260831095049 | 76 | 215 | 3.0 | 13.0 | 0.00 | 0.00 | 0.00 | 68 | 1012.2 |
| 20260831094549 | 76 | 150 | 5.0 | 13.0 | 0.00 | 0.00 | 0.00 | 67 | 1012.2 |
| 20260831094053 | 76 | 199 | 3.0 | 12.0 | 0.00 | 0.00 | 0.00 | 67 | 1012.2 |
| 20260831093547 | 76 | 163 | 5.0 | 12.0 | 0.00 | 0.00 | 0.00 | 67 | 1012.2 |
| 20260831093047 | 76 | 190 | 1.0 | 13.0 | 0.00 | 0.00 | 0.00 | 67 | 1012.2 |
| 20260831092547 | 75 | 205 | 2.0 | 13.0 | 0.00 | 0.00 | 0.00 | 67 | 1012.3 |
| 20260831092046 | 75 | 217 | 2.0 | 12.0 | 0.00 | 0.00 | 0.00 | 67 | 1012.3 |
| 20260831091557 | 75 | 209 | 5.0 | 12.0 | 0.00 | 0.00 | 0.00 | 66 | 1012.3 |
| 20260831091047 | 75 | 232 | 5.0 | 16.0 | 0.00 | 0.00 | 0.00 | 66 | 1012.3 |
| 20260831090548 | 76 | 222 | 5.0 | 16.0 | 0.00 | 0.00 | 0.00 | 65 | 1012.3 |
| 20260831090046 | 76 | 208 | 6.0 | 10.0 | 0.00 | 0.00 | 0.00 | 65 | 1012.3 |
| 20260831085548 | 76 | 233 | 3.0 | 10.0 | 0.00 | 0.00 | 0.00 | 66 | 1012.3 |
| 20260831085044 | 76 | 214 | 6.0 | 10.0 | 0.00 | 0.00 | 0.00 | 67 | 1012.3 |
| 20260831084544 | 75 | 219 | 6.0 | 10.0 | 0.00 | 0.00 | 0.00 | 67 | 1012.3 |
| 20260831084042 | 75 | 210 | 5.0 | 10.0 | 0.00 | 0.00 | 0.00 | 69 | 1012.3 |
| 20260831083540 | 76 | 360 | 1.0 | 17.0 | 0.00 | 0.00 | 0.00 | 70 | 1012.3 |
| 20260831083040 | 76 | 200 | 6.0 | 17.0 | 0.00 | 0.00 | 0.00 | 68 | 1012.2 |
| 20260831082537 | 75 | 229 | 5.0 | 11.0 | 0.00 | 0.00 | 0.00 | 69 | 1012.3 |
| 20260831082037 | 75 | 184 | 7.0 | 11.0 | 0.00 | 0.00 | 0.00 | 69 | 1012.2 |
| 20260831081540 | 75 | 155 | 6.0 | 10.0 | 0.00 | 0.00 | 0.00 | 70 | 1012.3 |
| 20260831081038 | 75 | 181 | 6.0 | 10.0 | 0.00 | 0.00 | 0.00 | 69 | 1012.2 |
| 20260831080536 | 74 | 227 | 4.0 | 9.0 | 0.00 | 0.00 | 0.00 | 71 | 1012.2 |
| 20260831080057 | 74 | 191 | 4.0 | 10.0 | 0.00 | 0.00 | 0.00 | 71 | 1012.2 |
| 20260831075533 | 74 | 188 | 4.0 | 10.0 | 0.00 | 0.00 | 0.00 | 71 | 1012.2 |
| 20260831075034 | 73 | 198 | 6.0 | 10.0 | 0.00 | 0.00 | 0.00 | 71 | 1012.2 |
| 20260831074531 | 73 | 175 | 5.0 | 9.0 | 0.00 | 0.00 | 0.00 | 71 | 1012.2 |
| 20260831074031 | 73 | 186 | 4.0 | 9.0 | 0.00 | 0.00 | 0.00 | 71 | 1012.3 |
| 20260831073532 | 73 | 216 | 2.0 | 6.0 | 0.00 | 0.00 | 0.00 | 73 | 1012.3 |
| 20260831073130 | 73 | 176 | 0.0 | 6.0 | 0.00 | 0.00 | 0.00 | 73 | 1012.3 |
| 20260831072531 | 73 | 184 | 3.0 | 6.0 | 0.00 | 0.00 | 0.00 | 72 | 1012.3 |
| 20260831072030 | 73 | 169 | 1.0 | 8.0 | 0.00 | 0.00 | 0.00 | 72 | 1012.4 |
| 20260831071528 | 73 | 192 | 1.0 | 6.0 | 0.00 | 0.00 | 0.00 | 72 | 1012.4 |
| 20260831071031 | 73 | 198 | 0.0 | 6.0 | 0.00 | 0.00 | 0.00 | 73 | 1012.4 |
| 20260831070532 | 73 | 198 | 1.0 | 7.0 | 0.00 | 0.00 | 0.00 | 72 | 1012.4 |
| 20260831070029 | 73 | 208 | 4.0 | 9.0 | 0.00 | 0.00 | 0.00 | 73 | 1012.3 |
| 20260831065526 | 72 | 171 | 4.0 | 9.0 | 0.00 | 0.00 | 0.00 | 73 | 1012.4 |
| 20260831065024 | 72 | 139 | 1.0 | 11.0 | 0.00 | 0.00 | 0.00 | 75 | 1012.4 |
| 20260831064523 | 71 | 140 | 4.0 | 10.0 | 0.00 | 0.00 | 0.00 | 74 | 1012.4 |
| 20260831064025 | 71 | 176 | 0.0 | 9.0 | 0.00 | 0.00 | 0.00 | 75 | 1012.5 |
| 20260831063520 | 71 | 166 | 4.0 | 9.0 | 0.00 | 0.00 | 0.00 | 76 | 1012.5 |
| 20260831063027 | 70 | 155 | 0.0 | 0.0 | 0.00 | 0.00 | 0.00 | 79 | 1012.7 |
| 20260831062518 | 69 | 155 | 0.0 | 0.0 | 0.00 | 0.00 | 0.00 | 79 | 1012.7 |
| 20260831062017 | 68 | 155 | 0.0 | 0.0 | 0.00 | 0.00 | 0.00 | 81 | 1012.7 |
| 20260831061516 | 67 | 155 | 0.0 | 0.0 | 0.00 | 0.00 | 0.00 | 83 | 1012.7 |
| 20260831061014 | 67 | 155 | 0.0 | 7.0 | 0.00 | 0.00 | 0.00 | 85 | 1012.8 |
| 20260831060513 | 66 | 153 | 2.0 | 7.0 | 0.00 | 0.00 | 0.00 | 86 | 1012.7 |
| 20260831060012 | 65 | 160 | 3.0 | 7.0 | 0.00 | 0.00 | 0.00 | 87 | 1012.7 |
| 20260831055510 | 64 | 182 | 0.0 | 0.0 | 0.00 | 0.00 | 0.00 | 88 | 1012.7 |
| 20260831055009 | 64 | 191 | 0.0 | 0.0 | 0.00 | 0.00 | 0.00 | 89 | 1012.8 |
| 20260831054513 | 63 | 205 | 0.0 | 0.0 | 0.00 | 0.00 | 0.00 | 90 | 1012.8 |
| 20260831054010 | 63 | 205 | 0.0 | 0.0 | 0.00 | 0.00 | 0.00 | 91 | 1012.8 |
| 20260831053507 | 63 | 205 | 0.0 | 0.0 | 0.00 | 0.00 | 0.00 | 91 | 1012.7 |
| 20260831053007 | 62 | 205 | 0.0 | 0.0 | 0.00 | 0.00 | 0.00 | 92 | 1012.7 |
| 20260831052605 | 62 | 205 | 0.0 | 0.0 | 0.00 | 0.00 | 0.00 | 92 | 1012.7 |
| 20260831052005 | 62 | 205 | 0.0 | 0.0 | 0.00 | 0.00 | 0.00 | 92 | 1012.7 |
| 20260831051505 | 61 | 205 | 0.0 | 0.0 | 0.00 | 0.00 | 0.00 | 92 | 1012.7 |
| 20260831051004 | 61 | 205 | 0.0 | 0.0 | 0.00 | 0.00 | 0.00 | 92 | 1012.8 |
| 20260831050504 | 61 | 205 | 0.0 | 0.0 | 0.00 | 0.00 | 0.00 | 92 | 1012.8 |
| 20260831050004 | 61 | 205 | 0.0 | 0.0 | 0.00 | 0.00 | 0.00 | 92 | 1012.8 |
| 20260831045503 | 60 | 205 | 0.0 | 0.0 | 0.00 | 0.00 | 0.00 | 93 | 1012.9 |
| 20260831045004 | 60 | 205 | 0.0 | 0.0 | 0.00 | 0.00 | 0.00 | 93 | 1012.9 |
| 20260831044502 | 60 | 205 | 0.0 | 0.0 | 0.00 | 0.00 | 0.00 | 93 | 1012.9 |
| 20260831044002 | 60 | 205 | 0.0 | 0.0 | 0.00 | 0.00 | 0.00 | 93 | 1012.9 |
| 20260831043501 | 59 | 205 | 0.0 | 0.0 | 0.00 | 0.00 | 0.00 | 93 | 1012.9 |
| 20260831043100 | 59 | 205 | 0.0 | 0.0 | 0.00 | 0.00 | 0.00 | 93 | 1012.9 |
| 20260831042601 | 59 | 205 | 0.0 | 0.0 | 0.00 | 0.00 | 0.00 | 93 | 1012.9 |
| 20260831042058 | 59 | 205 | 0.0 | 0.0 | 0.00 | 0.00 | 0.00 | 93 | 1012.9 |
| 20260831041608 | 59 | 205 | 0.0 | 0.0 | 0.00 | 0.00 | 0.00 | 93 | 1013.0 |
| 20260831041059 | 59 | 205 | 0.0 | 0.0 | 0.00 | 0.00 | 0.00 | 92 | 1013.0 |
| 20260831040556 | 59 | 205 | 0.0 | 0.0 | 0.00 | 0.00 | 0.00 | 92 | 1012.9 |
| 20260831040058 | 59 | 205 | 0.0 | 0.0 | 0.00 | 0.00 | 0.00 | 92 | 1013.0 |
| 20260831035559 | 59 | 205 | 0.0 | 0.0 | 0.00 | 0.00 | 0.00 | 92 | 1013.0 |
| 20260831035055 | 59 | 205 | 0.0 | 0.0 | 0.00 | 0.00 | 0.00 | 92 | 1012.9 |
| 20260831034603 | 59 | 205 | 0.0 | 0.0 | 0.00 | 0.00 | 0.00 | 92 | 1012.8 |
| 20260831034054 | 59 | 205 | 0.0 | 0.0 | 0.00 | 0.00 | 0.00 | 92 | 1012.8 |
| 20260831033557 | 59 | 205 | 0.0 | 0.0 | 0.00 | 0.00 | 0.00 | 92 | 1012.9 |
| 20260831033054 | 59 | 205 | 0.0 | 0.0 | 0.00 | 0.00 | 0.00 | 92 | 1012.9 |
| 20260831032553 | 59 | 205 | 0.0 | 0.0 | 0.00 | 0.00 | 0.00 | 92 | 1012.9 |
| 20260831032153 | 59 | 205 | 0.0 | 0.0 | 0.00 | 0.00 | 0.00 | 92 | 1012.9 |
| 20260831031553 | 59 | 205 | 0.0 | 0.0 | 0.00 | 0.00 | 0.00 | 92 | 1012.9 |
| 20260831031053 | 59 | 205 | 0.0 | 0.0 | 0.00 | 0.00 | 0.00 | 92 | 1012.9 |
| 20260831030553 | 59 | 205 | 0.0 | 0.0 | 0.00 | 0.00 | 0.00 | 92 | 1012.7 |
| 20260831030059 | 59 | 205 | 0.0 | 0.0 | 0.00 | 0.00 | 0.00 | 92 | 1012.7 |
| 20260831025551 | 59 | 205 | 0.0 | 0.0 | 0.00 | 0.00 | 0.00 | 92 | 1012.8 |
| 20260831025051 | 59 | 205 | 0.0 | 0.0 | 0.00 | 0.00 | 0.00 | 92 | 1012.9 |
| 20260831024551 | 59 | 205 | 0.0 | 0.0 | 0.00 | 0.00 | 0.00 | 92 | 1012.9 |
| 20260831024051 | 59 | 205 | 0.0 | 0.0 | 0.00 | 0.00 | 0.00 | 92 | 1013.0 |
| 20260831023549 | 59 | 205 | 0.0 | 0.0 | 0.00 | 0.00 | 0.00 | 91 | 1013.0 |
| 20260831023049 | 59 | 205 | 0.0 | 0.0 | 0.00 | 0.00 | 0.00 | 91 | 1013.0 |
| 20260831022553 | 60 | 205 | 0.0 | 0.0 | 0.00 | 0.00 | 0.00 | 91 | 1013.0 |